North Canton, OH

4:35 AM EST on February 23, 2017 (GMT -0500)
Akron-Canton Regional

Weather History for KCAK - March, 2013

Change the Weather History Date:

Monday, March 18, 2013

  Actual Average Record
Temperature  
Mean Temperature 38 °F 38 °F  
Max Temperature 47 °F 47 °F 75 °F (2012)
Min Temperature 28 °F 29 °F 3 °F (1916)
Degree Days  
Heating Degree Days 27 27  
Month to date heating degree days 551 537  
Since 1 July heating degree days 4812 5081  
Cooling Degree Days 0 0  
Month to date cooling degree days 0 0  
Year to date cooling degree days 0 0  
Moisture  
Dew Point 31 °F    
Average Humidity 83    
Maximum Humidity 96    
Minimum Humidity 69    
Precipitation  
Precipitation 0.52 in 0.10 in 0.99 in (1977)
Month to date precipitation 1.51 1.62  
Year to date precipitation 5.70 6.54  
Snow  
Snow T in 0.20 in - ()
Month to date snowfall 4.5 5.5  
Since 1 July snowfall 40.9 42.0  
Snow Depth 0.00 in    
Sea Level Pressure  
Sea Level Pressure 29.85 in    
Wind  
Wind Speed 15 mph (SE)    
Max Wind Speed 24 mph    
Max Gust Speed 32 mph    
Visibility 4 miles    
Events Rain , Snow    
T = Trace of Precipitation, MM = Missing Value Source: NWS Daily Summary

Daily Weather History Graph

Daily Weather History Graph

Search for Another Location

Airport or City:

Trip Planner

Search our weather history database for the weather conditions in past years. The results will help you decide how hot, cold, wet, or windy it might be!

Date:

Astronomy

Mar. 18, 2013 Rise Set
Actual Time 7:32 AM EDT 7:35 PM EDT
Civil Twilight 7:04 AM EDT 8:03 PM EDT
Nautical Twilight 6:32 AM EDT 8:35 PM EDT
Astronomical Twilight 6:00 AM EDT 9:08 PM EDT
Moon 11:28 AM EDT (3/18) 1:36 AM EDT (3/18)
Length of Visible Light 12h 58m
Length of Day
12h 03m
Waxing Crescent, 40% of the Moon is Illuminated
Mar 18
Waxing Crescent
Mar 19
First Quarter
Mar 27
Full
Apr 3
Last Quarter
Apr 10
New

Hourly Weather History & Observations

Time (EDT) Temp. Windchill Dew Point Humidity Pressure Visibility Wind Dir Wind Speed Gust Speed Precip Events Conditions
12:51 AM 27.0 °F 17.3 °F 19.0 °F 72% 30.15 in 10.0 mi ENE 10.4 mph - N/A   Mostly Cloudy
1:51 AM 28.0 °F 18.1 °F 19.0 °F 69% 30.13 in 9.0 mi East 11.5 mph - N/A   Mostly Cloudy
2:51 AM 28.9 °F 19.2 °F 19.9 °F 69% 30.11 in 9.0 mi East 11.5 mph - N/A   Overcast
3:51 AM 30.0 °F 20.5 °F 21.0 °F 69% 30.09 in 9.0 mi East 11.5 mph - N/A   Overcast
4:51 AM 30.9 °F 20.7 °F 21.9 °F 69% 30.03 in 8.0 mi East 13.8 mph - 0.00 in Snow Light Snow
5:19 AM 30.2 °F 18.5 °F 21.2 °F 69% 29.97 in 8.0 mi ESE 17.3 mph 23.0 mph 0.00 in Snow Light Snow
5:51 AM 32.0 °F 22.1 °F 23.0 °F 69% 30.00 in 7.0 mi SE 13.8 mph - 0.00 in Rain Light Freezing Rain
6:32 AM 32.0 °F 23.0 °F 26.6 °F 80% 29.95 in 5.0 mi ESE 11.5 mph - 0.00 in Rain Light Ice Pellets
6:51 AM 32.0 °F 22.1 °F 27.0 °F 82% 29.97 in 5.0 mi ESE 13.8 mph - 0.02 in Rain Ice Pellets
7:14 AM 32.0 °F 22.1 °F 28.4 °F 87% 29.93 in 4.0 mi ESE 13.8 mph - 0.03 in Rain Light Freezing Rain
7:51 AM 33.1 °F 23.9 °F 30.0 °F 89% 29.94 in 3.0 mi SE 12.7 mph 21.9 mph 0.08 in Rain Rain
8:26 AM 33.8 °F 22.8 °F 30.2 °F 87% 29.87 in 3.0 mi ESE 18.4 mph 24.2 mph 0.03 in Rain Light Rain
8:51 AM 34.0 °F 25.0 °F 30.9 °F 89% 29.90 in 3.0 mi SE 12.7 mph - 0.04 in Rain Light Rain
9:23 AM 33.8 °F 23.5 °F 30.2 °F 87% 29.86 in 2.0 mi SE 16.1 mph 27.6 mph 0.02 in Rain Light Rain
9:51 AM 34.0 °F 23.4 °F 32.0 °F 92% 29.88 in 2.0 mi ESE 17.3 mph 23.0 mph 0.08 in Rain Light Rain
10:51 AM 34.0 °F 22.7 °F 30.9 °F 89% 29.83 in 3.0 mi SE 19.6 mph 26.5 mph 0.14 in Rain Light Rain
11:51 AM 34.0 °F 24.2 °F 32.0 °F 92% 29.84 in 4.0 mi SE 15.0 mph - 0.03 in Rain Light Rain
12:51 PM 35.1 °F 24.8 °F 32.0 °F 89% 29.81 in 4.0 mi SE 17.3 mph - 0.00 in Rain Light Rain
1:51 PM 36.0 °F 26.7 °F 33.1 °F 89% 29.78 in 5.0 mi SE 15.0 mph 24.2 mph 0.00 in   Overcast
2:51 PM 37.0 °F 27.4 °F 34.0 °F 89% 29.74 in 3.0 mi SE 17.3 mph - 0.00 in Rain Light Rain
3:51 PM 37.0 °F 27.7 °F 35.1 °F 93% 29.69 in 2.0 mi SE 16.1 mph - 0.00 in Rain Light Rain
3:55 PM 37.4 °F 28.5 °F 35.6 °F 93% 29.65 in 1.8 mi SE 15.0 mph - 0.00 in Rain Light Rain
4:51 PM 39.0 °F 29.9 °F 37.0 °F 93% 29.66 in 2.0 mi SSE 17.3 mph - 0.02 in Rain Light Rain
5:51 PM 41.0 °F 32.8 °F 39.0 °F 93% 29.65 in 2.0 mi SSE 16.1 mph - 0.01 in Rain Light Rain
6:51 PM 42.1 °F 34.5 °F 41.0 °F 96% 29.64 in 1.0 mi SSE 15.0 mph - 0.01 in Rain Light Rain
7:34 PM 44.6 °F 38.1 °F 42.8 °F 93% 29.61 in 2.0 mi South 13.8 mph - 0.01 in Rain Light Rain
8:51 PM 45.0 °F 40.1 °F 43.0 °F 93% 29.64 in 2.0 mi South 9.2 mph - 0.03 in Rain Light Rain
9:51 PM 46.0 °F 40.6 °F 44.1 °F 93% 29.65 in 2.0 mi SW 11.5 mph - 0.02 in Rain Light Rain
10:51 PM 46.9 °F - 44.1 °F 90% 29.66 in 3.0 mi WNW 19.6 mph 27.6 mph 0.01 in Rain Light Rain
11:27 PM 44.6 °F 38.8 °F 42.8 °F 93% 29.66 in 3.0 mi West 11.5 mph - 0.00 in Rain Light Rain
11:51 PM 43.0 °F 34.0 °F 39.9 °F 89% 29.70 in 4.0 mi WNW 21.9 mph 28.8 mph 0.00 in Rain Light Rain